| time (UTC) | temp F | wind direction | speed MPH | gust MPH | rain 1hr in | rain 24hr in | rain mn in | humidity % | barometer mb |
| 20260902123311 | 77 | 230 | 8.0 | 14.0 | 0.00 | 0.00 | 0.00 | 56 | 1021.8 |
| 20260902122311 | 77 | 288 | 3.0 | 16.0 | 0.00 | 0.00 | 0.00 | 56 | 1021.8 |
| 20260902121310 | 76 | 226 | 7.0 | 12.0 | 0.00 | 0.00 | 0.00 | 56 | 1021.7 |
| 20260902120309 | 76 | 276 | 6.0 | 11.0 | 0.00 | 0.00 | 0.00 | 56 | 1021.8 |
| 20260902115310 | 76 | 269 | 7.0 | 12.0 | 0.00 | 0.00 | 0.00 | 57 | 1021.9 |
| 20260902114309 | 75 | 286 | 7.0 | 16.0 | 0.00 | 0.00 | 0.00 | 57 | 1021.7 |
| 20260902113309 | 74 | 250 | 5.0 | 12.0 | 0.00 | 0.00 | 0.00 | 57 | 1021.8 |
| 20260902111309 | 74 | 253 | 6.0 | 15.0 | 0.00 | 0.00 | 0.00 | 58 | 1022.0 |
| 20260902110309 | 74 | 224 | 6.0 | 10.0 | 0.00 | 0.00 | 0.00 | 59 | 1022.1 |
| 20260902105310 | 73 | 229 | 7.0 | 10.0 | 0.00 | 0.00 | 0.00 | 59 | 1021.9 |
| 20260902102309 | 72 | 219 | 6.0 | 15.0 | 0.00 | 0.00 | 0.00 | 60 | 1022.0 |
| 20260902101309 | 71 | 218 | 6.0 | 11.0 | 0.00 | 0.00 | 0.00 | 62 | 1022.2 |
| 20260902100309 | 71 | 243 | 8.0 | 12.0 | 0.00 | 0.00 | 0.00 | 64 | 1022.3 |
| 20260902095309 | 70 | 193 | 4.0 | 15.0 | 0.00 | 0.00 | 0.00 | 67 | 1022.2 |
| 20260902094309 | 69 | 255 | 5.0 | 10.0 | 0.00 | 0.00 | 0.00 | 68 | 1022.2 |
| 20260902093309 | 69 | 262 | 6.0 | 13.0 | 0.00 | 0.00 | 0.00 | 69 | 1022.2 |
| 20260902092309 | 68 | 228 | 7.0 | 13.0 | 0.00 | 0.00 | 0.00 | 70 | 1022.4 |
| 20260902091309 | 68 | 243 | 5.0 | 9.0 | 0.00 | 0.00 | 0.00 | 71 | 1022.2 |
| 20260902090309 | 67 | 224 | 6.0 | 13.0 | 0.00 | 0.00 | 0.00 | 73 | 1022.3 |
| 20260902085309 | 67 | 221 | 4.0 | 8.0 | 0.00 | 0.00 | 0.00 | 76 | 1022.4 |
| 20260902084309 | 66 | 257 | 4.0 | 10.0 | 0.00 | 0.00 | 0.00 | 76 | 1022.2 |
| 20260902083309 | 66 | 229 | 3.0 | 9.0 | 0.00 | 0.00 | 0.00 | 76 | 1022.2 |
| 20260902082310 | 65 | 271 | 6.0 | 11.0 | 0.00 | 0.00 | 0.00 | 77 | 1022.3 |
| 20260902081309 | 65 | 185 | 5.0 | 12.0 | 0.00 | 0.00 | 0.00 | 78 | 1022.4 |
| 20260902074309 | 62 | 221 | 3.0 | 10.0 | 0.00 | 0.00 | 0.00 | 81 | 1022.0 |
| 20260902072310 | 61 | 328 | 5.0 | 10.0 | 0.00 | 0.00 | 0.00 | 83 | 1021.9 |
| 20260902071309 | 61 | 250 | 7.0 | 11.0 | 0.00 | 0.00 | 0.00 | 84 | 1021.9 |
| 20260902070309 | 60 | 230 | 4.0 | 9.0 | 0.00 | 0.00 | 0.00 | 84 | 1021.5 |
| 20260902065309 | 60 | 327 | 3.0 | 11.0 | 0.00 | 0.00 | 0.00 | 84 | 1021.6 |
| 20260902064309 | 60 | 223 | 5.0 | 9.0 | 0.00 | 0.00 | 0.00 | 84 | 1021.6 |
| 20260902063309 | 60 | 314 | 4.0 | 8.0 | 0.00 | 0.00 | 0.00 | 85 | 1021.6 |
| 20260902062309 | 60 | 196 | 4.0 | 7.0 | 0.00 | 0.00 | 0.00 | 85 | 1021.6 |
| 20260902061309 | 60 | 269 | 3.0 | 6.0 | 0.00 | 0.00 | 0.00 | 85 | 1021.5 |
| 20260902060309 | 60 | 206 | 3.0 | 6.0 | 0.00 | 0.00 | 0.00 | 84 | 1021.5 |
| 20260902055309 | 60 | 220 | 3.0 | 5.0 | 0.00 | 0.00 | 0.00 | 84 | 1021.4 |
| 20260902054310 | 59 | 216 | 2.0 | 4.0 | 0.00 | 0.00 | 0.00 | 84 | 1021.6 |
| 20260902052309 | 59 | 187 | 3.0 | 4.0 | 0.00 | 0.00 | 0.00 | 84 | 1021.5 |
| 20260902051309 | 59 | 206 | 3.0 | 5.0 | 0.00 | 0.00 | 0.00 | 84 | 1021.4 |
| 20260902045309 | 59 | 234 | 3.0 | 6.0 | 0.00 | 0.00 | 0.00 | 86 | 1021.4 |
| 20260902043309 | 59 | 238 | 2.0 | 4.0 | 0.00 | 0.00 | 0.00 | 88 | 1021.6 |
| 20260902042309 | 58 | 223 | 3.0 | 6.0 | 0.00 | 0.00 | 0.00 | 88 | 1021.4 |
| 20260902041310 | 58 | 257 | 3.0 | 5.0 | 0.00 | 0.00 | 0.00 | 89 | 1021.4 |
| 20260902040310 | 58 | 215 | 3.0 | 5.0 | 0.00 | 0.00 | 0.00 | 89 | 1021.4 |
| 20260902035310 | 58 | 231 | 3.0 | 5.0 | 0.00 | 0.00 | 0.00 | 89 | 1021.5 |
| 20260902034310 | 58 | 227 | 2.0 | 5.0 | 0.00 | 0.00 | 0.00 | 89 | 1021.5 |
| 20260902033310 | 58 | 215 | 2.0 | 4.0 | 0.00 | 0.00 | 0.00 | 89 | 1021.6 |
| 20260902032310 | 59 | 220 | 2.0 | 5.0 | 0.00 | 0.00 | 0.00 | 89 | 1021.7 |
| 20260902031310 | 59 | 220 | 2.0 | 4.0 | 0.00 | 0.00 | 0.00 | 89 | 1021.7 |
| 20260902030310 | 59 | 186 | 3.0 | 5.0 | 0.00 | 0.00 | 0.00 | 89 | 1021.7 |
| 20260902025310 | 59 | 223 | 2.0 | 4.0 | 0.00 | 0.00 | 0.00 | 89 | 1021.8 |
| 20260902023310 | 59 | 190 | 2.0 | 4.0 | 0.00 | 0.00 | 0.00 | 89 | 1021.8 |
| 20260902022310 | 59 | 178 | 2.0 | 3.0 | 0.00 | 0.00 | 0.00 | 90 | 1021.8 |
| 20260902021309 | 59 | 202 | 2.0 | 3.0 | 0.00 | 0.00 | 0.00 | 90 | 1021.7 |
| 20260902020310 | 59 | 201 | 2.0 | 4.0 | 0.00 | 0.00 | 0.00 | 89 | 1022.0 |
| 20260902015310 | 59 | 220 | 2.0 | 5.0 | 0.00 | 0.00 | 0.00 | 89 | 1022.1 |
| 20260902013309 | 59 | 220 | 3.0 | 5.0 | 0.00 | 0.00 | 0.00 | 89 | 1021.9 |
| 20260902011309 | 59 | 213 | 2.0 | 4.0 | 0.00 | 0.00 | 0.00 | 88 | 1022.2 |
| 20260902010310 | 60 | 241 | 1.0 | 3.0 | 0.00 | 0.00 | 0.00 | 88 | 1022.2 |
| 20260902005310 | 60 | 223 | 2.0 | 4.0 | 0.00 | 0.00 | 0.00 | 87 | 1022.0 |
| 20260902004310 | 60 | 178 | 1.0 | 2.0 | 0.00 | 0.00 | 0.00 | 87 | 1022.0 |
| 20260902003311 | 60 | 206 | 2.0 | 3.0 | 0.00 | 0.00 | 0.00 | 88 | 1022.1 |
| 20260902002310 | 60 | 197 | 1.0 | 3.0 | 0.00 | 0.00 | 0.00 | 88 | 1022.0 |
| 20260902001310 | 60 | 178 | 0.0 | 2.0 | 0.00 | 0.00 | 0.00 | 88 | 1022.1 |
| 20260902000312 | 60 | 241 | 1.0 | 2.0 | 0.00 | 0.00 | 0.00 | 88 | 1022.2 |
| 20260901235310 | 60 | 178 | 2.0 | 3.0 | 0.00 | 0.00 | 0.00 | 87 | 1022.4 |
| 20260901234310 | 60 | 193 | 1.0 | 2.0 | 0.00 | 0.00 | 0.00 | 87 | 1022.5 |
| 20260901233311 | 60 | 178 | 1.0 | 2.0 | 0.00 | 0.00 | 0.00 | 87 | 1022.3 |
| 20260901232310 | 60 | 201 | 2.0 | 4.0 | 0.00 | 0.00 | 0.00 | 87 | 1022.5 |
| 20260901231310 | 60 | 206 | 1.0 | 2.0 | 0.00 | 0.00 | 0.00 | 87 | 1022.7 |
| 20260901230310 | 60 | 223 | 1.0 | 3.0 | 0.00 | 0.00 | 0.00 | 87 | 1022.8 |
| 20260901224310 | 60 | 223 | 1.0 | 2.0 | 0.00 | 0.00 | 0.00 | 87 | 1022.7 |
| 20260901223310 | 61 | 240 | 1.0 | 3.0 | 0.00 | 0.00 | 0.00 | 86 | 1022.8 |
| 20260901222310 | 61 | 213 | 1.0 | 3.0 | 0.00 | 0.00 | 0.00 | 86 | 1022.7 |
| 20260901221310 | 61 | 223 | 2.0 | 3.0 | 0.00 | 0.00 | 0.00 | 86 | 1022.7 |
| 20260901220310 | 61 | 201 | 1.0 | 2.0 | 0.00 | 0.00 | 0.00 | 85 | 1022.5 |
| 20260901215310 | 61 | 178 | 1.0 | 2.0 | 0.00 | 0.00 | 0.00 | 85 | 1022.5 |
| 20260901214310 | 62 | 145 | 1.0 | 2.0 | 0.00 | 0.00 | 0.00 | 85 | 1022.6 |
| 20260901213310 | 62 | 223 | 1.0 | 3.0 | 0.00 | 0.00 | 0.00 | 84 | 1022.7 |
| 20260901212310 | 62 | 223 | 1.0 | 2.0 | 0.00 | 0.00 | 0.00 | 84 | 1022.9 |
| 20260901211310 | 62 | 223 | 1.0 | 2.0 | 0.00 | 0.00 | 0.00 | 83 | 1022.9 |
| 20260901210310 | 62 | 178 | 1.0 | 2.0 | 0.00 | 0.00 | 0.00 | 83 | 1022.8 |
| 20260901205310 | 63 | 250 | 1.0 | 2.0 | 0.00 | 0.00 | 0.00 | 82 | 1022.9 |
| 20260901203310 | 63 | 269 | 1.0 | 2.0 | 0.00 | 0.00 | 0.00 | 82 | 1022.8 |
| 20260901202309 | 63 | 279 | 1.0 | 2.0 | 0.00 | 0.00 | 0.00 | 81 | 1022.9 |
| 20260901201309 | 63 | 314 | 1.0 | 3.0 | 0.00 | 0.00 | 0.00 | 81 | 1022.7 |
| 20260901200310 | 63 | 321 | 1.0 | 2.0 | 0.00 | 0.00 | 0.00 | 81 | 1022.6 |
| 20260901195309 | 64 | 314 | 1.0 | 4.0 | 0.00 | 0.00 | 0.00 | 81 | 1022.7 |
| 20260901194309 | 64 | 311 | 3.0 | 6.0 | 0.00 | 0.00 | 0.00 | 81 | 1022.6 |
| 20260901193310 | 64 | 327 | 2.0 | 4.0 | 0.00 | 0.00 | 0.00 | 82 | 1022.7 |
| 20260901192309 | 64 | 331 | 1.0 | 4.0 | 0.00 | 0.00 | 0.00 | 82 | 1022.6 |
| 20260901191309 | 64 | 1 | 2.0 | 3.0 | 0.00 | 0.00 | 0.00 | 82 | 1022.5 |
| 20260901190309 | 64 | 308 | 2.0 | 4.0 | 0.00 | 0.00 | 0.00 | 81 | 1022.5 |
| 20260901184309 | 65 | 314 | 2.0 | 5.0 | 0.00 | 0.00 | 0.00 | 80 | 1022.2 |
| 20260901180309 | 65 | 318 | 2.0 | 5.0 | 0.00 | 0.00 | 0.00 | 79 | 1022.2 |
| 20260901175309 | 65 | 351 | 3.0 | 6.0 | 0.00 | 0.00 | 0.00 | 78 | 1022.0 |
| 20260901174309 | 66 | 20 | 2.0 | 6.0 | 0.00 | 0.00 | 0.00 | 78 | 1022.2 |
| 20260901173309 | 66 | 8 | 3.0 | 5.0 | 0.00 | 0.00 | 0.00 | 77 | 1022.2 |
| 20260901172309 | 67 | 286 | 1.0 | 4.0 | 0.00 | 0.00 | 0.00 | 77 | 1022.2 |
| 20260901171309 | 67 | 323 | 2.0 | 4.0 | 0.00 | 0.00 | 0.00 | 76 | 1022.4 |
| 20260901170309 | 67 | 44 | 3.0 | 5.0 | 0.00 | 0.00 | 0.00 | 78 | 1022.2 |
| 20260901164309 | 68 | 56 | 4.0 | 10.0 | 0.00 | 0.00 | 0.00 | 77 | 1022.2 |
| 20260901163309 | 68 | 1 | 2.0 | 7.0 | 0.00 | 0.00 | 0.00 | 77 | 1022.2 |
| 20260901162309 | 67 | 68 | 3.0 | 7.0 | 0.00 | 0.00 | 0.00 | 78 | 1022.3 |
| 20260901161309 | 67 | 49 | 4.0 | 7.0 | 0.00 | 0.00 | 0.00 | 78 | 1022.2 |
| 20260901160309 | 68 | 74 | 3.0 | 7.0 | 0.00 | 0.00 | 0.00 | 76 | 1022.4 |
| 20260901155309 | 68 | 14 | 3.0 | 9.0 | 0.00 | 0.00 | 0.00 | 76 | 1022.4 |
| 20260901154309 | 69 | 94 | 4.0 | 9.0 | 0.00 | 0.00 | 0.00 | 76 | 1022.4 |
| 20260901153309 | 69 | 346 | 5.0 | 8.0 | 0.00 | 0.00 | 0.00 | 77 | 1022.3 |
| 20260901152309 | 68 | 302 | 3.0 | 8.0 | 0.00 | 0.00 | 0.00 | 76 | 1022.4 |
| 20260901151309 | 69 | 8 | 3.0 | 8.0 | 0.00 | 0.00 | 0.00 | 74 | 1022.2 |
| 20260901150309 | 69 | 344 | 4.0 | 7.0 | 0.00 | 0.00 | 0.00 | 73 | 1022.4 |
| 20260901145309 | 68 | 6 | 5.0 | 8.0 | 0.00 | 0.00 | 0.00 | 75 | 1022.4 |
| 20260901144309 | 68 | 323 | 4.0 | 9.0 | 0.00 | 0.00 | 0.00 | 74 | 1022.3 |
| 20260901143309 | 68 | 59 | 5.0 | 11.0 | 0.00 | 0.00 | 0.00 | 74 | 1022.5 |
| 20260901142309 | 68 | 32 | 3.0 | 12.0 | 0.00 | 0.00 | 0.00 | 74 | 1022.5 |
| 20260901141309 | 69 | 323 | 4.0 | 7.0 | 0.00 | 0.00 | 0.00 | 73 | 1022.5 |
| 20260901140309 | 69 | 49 | 3.0 | 11.0 | 0.00 | 0.00 | 0.00 | 71 | 1022.5 |
| 20260901134309 | 69 | 95 | 6.0 | 9.0 | 0.00 | 0.00 | 0.00 | 74 | 1022.4 |
| 20260901133309 | 69 | 49 | 4.0 | 11.0 | 0.00 | 0.00 | 0.00 | 75 | 1022.3 |
| 20260901132309 | 68 | 54 | 6.0 | 8.0 | 0.00 | 0.00 | 0.00 | 75 | 1022.5 |
| 20260901131309 | 68 | 32 | 4.0 | 9.0 | 0.00 | 0.00 | 0.00 | 75 | 1022.4 |
| 20260901125309 | 69 | 74 | 6.0 | 9.0 | 0.00 | 0.00 | 0.00 | 74 | 1022.5 |
| 20260901124309 | 68 | 66 | 5.0 | 11.0 | 0.00 | 0.00 | 0.00 | 75 | 1022.5 |